timestamp,surface_pressure_avg,surface_temp_avg,battery_voltage,lat,long
2020-08-13 00:09:01+00:00,225.2197,19.9,12.89,47.84626,-54.09684
2020-08-13 00:19:01+00:00,227.9698,19.9,12.73,47.84626,-54.09684
2020-08-13 00:29:01+00:00,228.5481,19.87,12.73,47.84626,-54.09684
2020-08-13 00:39:01+00:00,228.3264,19.8,12.73,47.84626,-54.09684
2020-08-13 00:49:01+00:00,229.7947,19.8,12.73,47.84626,-54.09684
2020-08-13 00:59:01+00:00,229.5998,19.8,12.73,47.84626,-54.09684
2020-08-13 01:09:01+00:00,228.1181,19.8,12.73,47.84626,-54.09684
2020-08-13 01:19:01+00:00,229.4281,19.83,12.73,47.84626,-54.09684
2020-08-13 01:29:01+00:00,232.7231,19.86,12.73,47.84626,-54.09684
2020-08-13 01:39:01+00:00,233.2981,19.87,12.73,47.84626,-54.09684
2020-08-13 01:49:01+00:00,233.4814,19.9,12.73,47.84626,-54.09684
2020-08-13 01:59:01+00:00,236.2514,19.9,12.73,47.84626,-54.09684
2020-08-13 02:09:01+00:00,239.7781,19.9,12.73,47.84626,-54.09684
2020-08-13 02:19:01+00:00,241.3315,19.9,12.73,47.84626,-54.09684
2020-08-13 02:29:01+00:00,242.3614,19.9,12.73,47.84626,-54.09684
2020-08-13 02:39:01+00:00,243.5748,19.94,12.73,47.84626,-54.09684
2020-08-13 02:49:01+00:00,247.6331,19.96,12.73,47.84626,-54.09684
2020-08-13 02:59:01+00:00,251.0348,19.92,12.73,47.84626,-54.09684
2020-08-13 03:09:01+00:00,253.2914,19.91,12.73,47.84626,-54.09684
2020-08-13 03:19:01+00:00,256.2331,19.9,12.73,47.84626,-54.09684
2020-08-13 03:29:01+00:00,262.5197,19.9,12.73,47.84626,-54.09684
2020-08-13 03:39:01+00:00,267.3565,19.9,12.73,47.84626,-54.09684
2020-08-13 03:49:01+00:00,270.9164,19.94,12.73,47.84626,-54.09684
2020-08-13 03:59:01+00:00,274.0814,19.93,12.73,47.84626,-54.09684
2020-08-13 04:09:01+00:00,279.9348,19.9,12.73,47.84626,-54.09684
2020-08-13 04:19:01+00:00,283.2814,19.8,12.73,47.84626,-54.09684
2020-08-13 04:29:01+00:00,284.9397,19.89,12.73,47.84626,-54.09684
2020-08-13 04:39:01+00:00,285.4781,19.9,12.73,47.84626,-54.09684
2020-08-13 04:49:01+00:00,289.0847,19.8,12.73,47.84626,-54.09684
2020-08-13 04:59:01+00:00,291.038,19.8,12.73,47.84626,-54.09684
2020-08-13 05:09:01+00:00,291.2997,19.89,12.73,47.84626,-54.09684
2020-08-13 05:19:01+00:00,293.2147,19.9,12.73,47.84626,-54.09684
2020-08-13 05:29:01+00:00,296.6263,19.9,12.73,47.84626,-54.09684
2020-08-13 05:39:01+00:00,297.6996,19.92,12.73,47.84626,-54.09684
2020-08-13 05:49:01+00:00,297.7313,19.99,12.73,47.84626,-54.09684
2020-08-13 05:59:01+00:00,299.678,20.0,12.73,47.84626,-54.09684
2020-08-13 06:09:01+00:00,299.6797,20.0,12.73,47.84626,-54.09684
2020-08-13 06:19:01+00:00,298.7814,20.0,12.73,47.84626,-54.09684
2020-08-13 06:29:01+00:00,299.193,20.0,12.73,47.84626,-54.09684
2020-08-13 06:39:01+00:00,297.9197,20.0,12.73,47.84626,-54.09684
2020-08-13 06:49:01+00:00,295.1664,20.0,12.73,47.84626,-54.09684
2020-08-13 06:59:01+00:00,296.02299999999997,20.0,12.73,47.84626,-54.09684
2020-08-13 07:09:01+00:00,296.923,20.0,12.73,47.84626,-54.09684
2020-08-13 07:19:01+00:00,293.773,20.0,12.73,47.84626,-54.09684
2020-08-13 07:29:01+00:00,292.493,20.0,12.73,47.84626,-54.09684
2020-08-13 07:39:01+00:00,294.9747,19.9,12.73,47.84626,-54.09684
2020-08-13 07:49:01+00:00,294.158,19.9,12.73,47.84626,-54.09684
2020-08-13 07:59:01+00:00,287.4914,19.9,12.73,47.84626,-54.09684
2020-08-13 08:09:01+00:00,281.5797,19.9,12.73,47.84626,-54.09684
2020-08-13 08:19:01+00:00,279.783,19.9,12.65,47.84626,-54.09684
2020-08-13 08:29:01+00:00,277.2548,19.9,12.65,47.84626,-54.09684
2020-08-13 08:39:01+00:00,274.1797,19.9,12.65,47.84626,-54.09684
2020-08-13 08:49:01+00:00,270.6314,19.9,12.65,47.84626,-54.09684
2020-08-13 08:59:01+00:00,268.5997,19.93,12.65,47.84626,-54.09684
2020-08-13 09:09:01+00:00,263.5697,19.93,12.65,47.84626,-54.09684
2020-08-13 09:19:01+00:00,259.9247,19.97,12.65,47.84626,-54.09684
2020-08-13 09:29:01+00:00,256.2613,19.99,12.65,47.84626,-54.09684
2020-08-13 09:39:01+00:00,252.2331,19.99,12.65,47.84626,-54.09684
2020-08-13 09:49:01+00:00,246.8931,19.99,12.65,47.84626,-54.09684
2020-08-13 09:59:01+00:00,241.8214,20.0,12.65,47.84626,-54.09684
2020-08-13 10:09:01+00:00,237.4031,20.0,12.65,47.84626,-54.09684
2020-08-13 10:19:01+00:00,233.0847,19.97,12.65,47.84626,-54.09684
2020-08-13 10:29:01+00:00,230.5231,19.99,12.65,47.84626,-54.09684
2020-08-13 10:39:01+00:00,227.7315,20.0,12.65,47.84626,-54.09684
2020-08-13 10:49:01+00:00,225.3048,20.0,12.65,47.84626,-54.09684
2020-08-13 10:59:01+00:00,223.9148,20.0,12.65,47.84626,-54.09684
2020-08-13 11:09:01+00:00,222.6164,20.04,12.65,47.84626,-54.09684
2020-08-13 11:19:01+00:00,219.5731,20.06,12.73,47.84626,-54.09684
2020-08-13 11:29:01+00:00,217.9314,20.0,12.73,47.84626,-54.09684
2020-08-13 11:39:01+00:00,220.8164,20.0,12.73,47.84626,-54.09684
2020-08-13 11:49:01+00:00,223.3881,20.0,12.73,47.84626,-54.09684
2020-08-13 11:59:01+00:00,223.5797,20.0,12.73,47.84626,-54.09684
2020-08-13 12:09:01+00:00,222.7998,19.94,12.73,47.84626,-54.09684
2020-08-13 12:19:01+00:00,226.2565,19.94,12.81,47.84626,-54.09684
2020-08-13 12:29:01+00:00,228.5547,19.9,12.81,47.84626,-54.09684
2020-08-13 12:39:01+00:00,228.3564,19.9,12.81,47.84626,-54.09684
2020-08-13 12:49:01+00:00,230.0047,19.9,12.81,47.84626,-54.09684
2020-08-13 12:59:01+00:00,230.653,19.8,12.81,47.84626,-54.09684
2020-08-13 13:09:01+00:00,228.7531,19.8,12.81,47.84626,-54.09684
2020-08-13 13:19:01+00:00,230.2864,19.8,13.21,47.84626,-54.09684
2020-08-13 13:29:01+00:00,234.4447,19.8,13.21,47.84626,-54.09684
2020-08-13 13:39:01+00:00,234.6915,19.7,13.21,47.84626,-54.09684
2020-08-13 13:49:01+00:00,232.6964,19.72,13.21,47.84626,-54.09684
2020-08-13 13:59:01+00:00,235.0781,19.8,13.21,47.84626,-54.09684
2020-08-13 14:09:01+00:00,239.5531,19.8,13.21,47.84626,-54.09684
2020-08-13 14:19:01+00:00,240.1247,19.8,13.37,47.84626,-54.09684
2020-08-13 14:29:01+00:00,240.2764,19.87,13.37,47.84626,-54.09684
2020-08-13 14:39:01+00:00,243.6698,19.9,13.37,47.84626,-54.09684
2020-08-13 14:49:01+00:00,247.34799999999998,19.9,13.37,47.84626,-54.09684
2020-08-13 14:59:01+00:00,249.1581,19.94,13.37,47.84626,-54.09684
2020-08-13 15:09:01+00:00,251.9447,19.97,13.37,47.84626,-54.09684
2020-08-13 15:19:01+00:00,258.1531,19.9,13.53,47.84626,-54.09684
2020-08-13 15:29:01+00:00,263.7064,19.7,13.53,47.84626,-54.09684
2020-08-13 15:39:01+00:00,268.1847,19.6,13.53,47.84626,-54.09684
2020-08-13 15:49:01+00:00,273.1514,19.69,13.53,47.84626,-54.09684
2020-08-13 15:59:01+00:00,278.1597,19.69,13.53,47.84626,-54.09684
2020-08-13 16:09:01+00:00,280.8531,19.79,13.53,47.84626,-54.09684
2020-08-13 16:19:01+00:00,282.698,19.8,13.84,47.84626,-54.09684
2020-08-13 16:29:01+00:00,287.0096,19.87,13.84,47.84626,-54.09684
2020-08-13 16:39:01+00:00,292.0914,19.89,13.84,47.84626,-54.09684
2020-08-13 16:49:01+00:00,294.6914,19.7,13.84,47.84626,-54.09684
2020-08-13 16:59:01+00:00,297.563,19.7,13.84,47.84626,-54.09684
2020-08-13 17:09:01+00:00,302.1331,19.79,13.84,47.84626,-54.09684
2020-08-13 17:19:01+00:00,306.893,19.8,13.84,47.84626,-54.09684
2020-08-13 17:29:01+00:00,308.8664,19.7,13.84,47.84626,-54.09684
2020-08-13 17:39:01+00:00,308.6197,19.7,13.84,47.84626,-54.09684
2020-08-13 17:49:01+00:00,311.3929,19.67,13.84,47.84626,-54.09684
2020-08-13 17:59:01+00:00,312.623,19.6,13.84,47.84626,-54.09684
2020-08-13 18:09:01+00:00,312.218,19.54,13.84,47.84626,-54.09684
2020-08-13 18:19:01+00:00,315.6613,19.54,13.76,47.84626,-54.09684
2020-08-13 18:29:01+00:00,318.638,19.6,13.76,47.84626,-54.09684
2020-08-13 18:39:01+00:00,319.4747,19.67,13.76,47.84626,-54.09684
2020-08-13 18:49:01+00:00,318.5264,19.7,13.76,47.84626,-54.09684
2020-08-13 18:59:01+00:00,321.7114,19.7,13.76,47.84626,-54.09684
2020-08-13 19:09:01+00:00,322.7163,19.7,13.76,47.84626,-54.09684
2020-08-13 19:19:01+00:00,320.6964,19.76,13.68,47.84626,-54.09684
2020-08-13 19:29:01+00:00,320.5347,19.8,13.68,47.84626,-54.09684
2020-08-13 19:39:01+00:00,320.3596,19.8,13.68,47.84626,-54.09684
2020-08-13 19:49:01+00:00,318.1896,19.79,13.68,47.84626,-54.09684
2020-08-13 19:59:01+00:00,315.923,19.8,13.68,47.84626,-54.09684
2020-08-13 20:09:01+00:00,316.1263,19.8,13.68,47.84626,-54.09684
2020-08-13 20:19:01+00:00,314.4363,19.8,13.44,47.84626,-54.09684
2020-08-13 20:29:01+00:00,310.4446,19.8,13.44,47.84626,-54.09684
2020-08-13 20:39:01+00:00,308.168,19.8,13.44,47.84626,-54.09684
2020-08-13 20:49:01+00:00,307.4446,19.86,13.44,47.84626,-54.09684
2020-08-13 20:59:01+00:00,301.8447,19.9,13.44,47.84626,-54.09684
2020-08-13 21:09:01+00:00,298.0213,19.93,13.44,47.84626,-54.09684
2020-08-13 21:19:01+00:00,296.223,19.96,13.21,47.84626,-54.09684
2020-08-13 21:29:01+00:00,294.0964,19.95,13.21,47.84626,-54.09684
2020-08-13 21:39:01+00:00,288.7764,19.93,13.21,47.84626,-54.09684
2020-08-13 21:49:01+00:00,284.9181,19.95,13.21,47.84626,-54.09684
2020-08-13 21:59:01+00:00,282.4363,19.98,13.21,47.84626,-54.09684
2020-08-13 22:09:01+00:00,278.0714,19.99,13.21,47.84626,-54.09684
2020-08-13 22:19:01+00:00,271.7181,19.99,12.89,47.84626,-54.09684
2020-08-13 22:29:01+00:00,266.8047,20.0,12.89,47.84626,-54.09684
2020-08-13 22:39:01+00:00,261.6181,20.0,12.89,47.84626,-54.09684
2020-08-13 22:49:01+00:00,256.2581,20.0,12.89,47.84626,-54.09684
2020-08-13 22:59:01+00:00,250.0731,20.0,12.89,47.84626,-54.09684
2020-08-13 23:09:01+00:00,247.9064,20.0,12.89,47.84626,-54.09684
2020-08-13 23:19:01+00:00,244.9697,20.0,12.81,47.84626,-54.09684
2020-08-13 23:29:01+00:00,241.8964,20.0,12.81,47.84626,-54.09684
2020-08-13 23:39:01+00:00,241.0564,20.0,12.81,47.84626,-54.09684
2020-08-13 23:49:01+00:00,239.8581,20.09,12.81,47.84626,-54.09684
2020-08-13 23:59:01+00:00,235.8514,20.13,12.81,47.84626,-54.09684
